Weather History for KABQ - October, 2012

Change the Weather History Date:

Thursday, October 25, 2012

  Actual Average Record
Temperature  
Mean Temperature 53 °F 54 °F  
Max Temperature 61 °F 66 °F 81 °F (1950)
Min Temperature 45 °F 43 °F 22 °F (1935)
Degree Days  
Heating Degree Days 12 11  
Month to date heating degree days 71 167  
Since 1 July heating degree days 79 193  
Cooling Degree Days 0 0  
Month to date cooling degree days 25 7  
Year to date cooling degree days 1768 1319  
Growing Degree Days 3 (Base 50)    
Moisture  
Dew Point 14 °F    
Average Humidity 23    
Maximum Humidity 34    
Minimum Humidity 12    
Precipitation  
Precipitation 0.00 in 0.02 in 0.94 in (1972)
Month to date precipitation T 0.88  
Year to date precipitation 5.23 8.24  
Snow  
Snow 0.00 in - - ()
Month to date snowfall 0.0  
Since 1 July snowfall 0.0  
Since 1 September snowfall 0.0  
Snow Depth 0.00 in    
Sea Level Pressure  
Sea Level Pressure 29.98 in    
Wind  
Wind Speed 7 mph (North)    
Max Wind Speed 17 mph    
Max Gust Speed 23 mph    
Visibility 10 miles    
Events      
T = Trace of Precipitation, MM = Missing Value Source: NWS Daily Summary

Daily Weather History Graph

Daily Weather History Graph

Search for Another Location

Airport or City:

Trip Planner

Search our weather history database for the weather conditions in past years. The results will help you decide how hot, cold, wet, or windy it might be!

Date:

Astronomy

Oct. 25, 2012 Rise Set
Actual Time 7:21 AM MDT 6:18 PM MDT
Civil Twilight 6:55 AM MDT 6:44 PM MDT
Nautical Twilight 6:25 AM MDT 7:14 PM MDT
Astronomical Twilight 5:56 AM MDT 7:43 PM MDT
Moon 3:59 PM MDT (10/25) 3:29 AM MDT (10/25)
Length of Visible Light 11h 49m
Length of Day
10h 57m
Waxing Gibbous, 85% of the Moon is Illuminated
Oct 25
Waxing Gibbous
Oct 29
Full
Nov 6
Last Quarter
Nov 13
New
Nov 20
First Quarter

Hourly Weather History & Observations

Time (MDT) Temp. Windchill Dew Point Humidity Pressure Visibility Wind Dir Wind Speed Gust Speed Precip Events Conditions
12:25 AM 57.2 °F - 19.4 °F 23% 30.00 in 10.0 mi North 12.7 mph 25.3 mph N/A   Clear
12:32 AM 55.4 °F - 19.4 °F 25% 30.00 in 10.0 mi North 10.4 mph - N/A   Clear
12:52 AM 55.0 °F - 19.9 °F 25% 29.82 in 10.0 mi North 12.7 mph - N/A   Clear
1:52 AM 54.0 °F - 19.9 °F 26% 29.85 in 10.0 mi North 6.9 mph - N/A   Clear
2:52 AM 52.0 °F - 19.9 °F 28% 29.87 in 10.0 mi NNW 17.3 mph - N/A   Clear
3:52 AM 50.0 °F - 19.0 °F 29% 29.88 in 10.0 mi NNW 13.8 mph - N/A   Clear
4:52 AM 48.0 °F - 16.0 °F 28% 29.92 in 10.0 mi NNW 10.4 mph - N/A   Clear
5:52 AM 46.9 °F - 15.1 °F 28% 29.96 in 10.0 mi NNW 11.5 mph - N/A   Clear
6:52 AM 45.0 °F 40.1 °F 15.1 °F 30% 29.99 in 10.0 mi NNW 9.2 mph - N/A   Clear
7:52 AM 45.0 °F 38.9 °F 16.0 °F 31% 30.02 in 10.0 mi NNW 12.7 mph - N/A   Clear
8:52 AM 46.9 °F - 16.0 °F 29% 30.04 in 10.0 mi NNW 10.4 mph - N/A   Clear
9:52 AM 50.0 °F - 14.0 °F 24% 30.04 in 10.0 mi NNW 11.5 mph 19.6 mph N/A   Partly Cloudy
10:52 AM 53.1 °F - 10.0 °F 18% 30.01 in 10.0 mi North 11.5 mph - N/A   Partly Cloudy
11:52 AM 55.0 °F - 10.0 °F 17% 30.01 in 10.0 mi NNW 13.8 mph 19.6 mph N/A   Partly Cloudy
12:52 PM 55.9 °F - 8.1 °F 15% 30.00 in 10.0 mi NNW 5.8 mph 16.1 mph N/A   Partly Cloudy
1:52 PM 59.0 °F - 8.6 °F 14% 30.10 in 10.0 mi Variable 3.5 mph - N/A   Partly Cloudy
2:52 PM 59.0 °F - 10.0 °F 14% 29.96 in 10.0 mi NW 3.5 mph - N/A   Scattered Clouds
3:52 PM 60.1 °F - 10.0 °F 14% 29.94 in 10.0 mi Calm Calm - N/A   Partly Cloudy
4:52 PM 60.1 °F - 10.0 °F 14% 29.94 in 10.0 mi East 3.5 mph - N/A   Partly Cloudy
5:52 PM 60.1 °F - 9.0 °F 13% 29.93 in 10.0 mi East 6.9 mph - N/A   Partly Cloudy
6:52 PM 57.9 °F - 9.0 °F 14% 29.96 in 10.0 mi Calm Calm - N/A   Partly Cloudy
7:52 PM 57.0 °F - 9.0 °F 15% 29.99 in 10.0 mi Calm Calm - N/A   Clear
8:52 PM 52.0 °F - 10.0 °F 19% 30.01 in 10.0 mi Calm Calm - N/A   Clear
9:52 PM 54.0 °F - 10.9 °F 18% 30.03 in 10.0 mi Calm Calm - N/A   Clear
11:52 PM 46.4 °F 44.3 °F 19.4 °F 34% 30.17 in 10.0 mi East 4.6 mph - N/A   Clear